EDT,Max TemperatureF,Mean TemperatureF,Min TemperatureF,Max Dew PointF,MeanDew PointF,Min DewpointF,Max Humidity, Mean Humidity, Min Humidity, Max Sea Level PressureIn, Mean Sea Level PressureIn, Min Sea Level PressureIn, Max VisibilityMiles, Mean VisibilityMiles, Min VisibilityMiles, Max Wind SpeedMPH, Mean Wind SpeedMPH, Max Gust SpeedMPH,PrecipitationIn, CloudCover, Events, WindDirDegrees
2012-10-1,71,60,48,55,48,43,96,69,38,29.98,29.92,29.86,10,9,4,10,2,16,0.00,2,Rain,254
2012-10-2,72,66,60,70,64,56,100,88,70,29.99,29.96,29.92,10,5,0,9,2,,0.48,8,Fog-Rain,69
2012-10-3,82,74,66,73,69,65,100,87,62,30.12,30.05,29.97,10,5,0,8,1,,0.01,4,Fog-Rain,297
2012-10-4,77,68,62,71,67,61,100,92,79,30.14,30.10,30.05,10,4,1,10,1,16,0.14,3,Rain,232
2012-10-5,80,67,55,63,57,54,100,85,42,30.09,30.05,29.95,10,6,1,7,1,,0.01,0,,272
2012-10-6,79,67,52,62,54,43,100,78,52,30.02,29.89,29.79,10,7,2,12,2,22,0.01,1,,283
2012-10-7,52,48,43,47,44,41,93,84,71,30.14,30.08,30.02,10,9,2,5,1,,0.13,6,Rain,294
2012-10-8,53,48,42,45,42,39,100,85,61,30.29,30.21,30.13,10,7,1,7,1,,0.01,3,Rain,349
2012-10-9,59,54,50,55,51,44,97,88,76,30.22,30.14,30.06,10,6,1,9,6,,0.06,8,Rain,15
2012-10-10,66,60,55,57,52,39,96,80,45,30.04,29.95,29.84,10,8,2,14,5,23,0.06,6,Rain,287
2012-10-11,60,51,43,38,35,30,82,55,33,30.24,30.17,30.04,10,10,10,12,6,22,0.00,0,,295
2012-10-12,60,48,37,43,34,25,97,65,33,30.45,30.22,30.11,10,9,6,17,4,23,0.00,1,,335
2012-10-13,57,44,30,40,29,23,92,60,31,30.53,30.45,30.34,10,10,10,6,1,,0.00,0,,264
2012-10-14,73,59,45,56,49,42,93,70,39,30.28,30.14,29.96,10,10,10,13,4,22,0.00,0,,212
2012-10-15,71,66,60,63,59,53,93,79,63,29.94,29.76,29.66,10,10,8,10,4,18,0.06,6,Rain,227
2012-10-16,61,52,41,49,40,36,93,63,41,29.93,29.82,29.72,10,10,10,15,7,24,0.00,1,,297
2012-10-17,62,49,36,43,39,34,97,75,44,30.03,29.98,29.92,10,10,9,5,0,,0.00,0,,240
2012-10-18,70,54,39,59,49,38,97,78,49,30.02,29.97,29.88,10,10,6,13,2,21,0.00,3,,115
2012-10-19,73,68,62,68,64,59,100,90,78,29.88,29.75,29.65,10,7,0,8,5,21,1.16,7,Fog-Rain,149
2012-10-20,66,56,46,60,50,41,100,79,40,29.88,29.73,29.67,10,6,0,9,2,16,0.01,1,Fog,264
2012-10-21,64,54,45,42,40,38,90,60,38,30.08,30.00,29.89,10,10,10,12,4,20,0.00,0,,285
2012-10-22,66,55,44,45,42,40,86,62,39,30.16,30.10,30.05,10,10,10,10,4,16,0.00,0,,254
2012-10-23,70,58,46,55,49,44,93,75,53,30.14,30.09,30.06,10,10,9,7,1,,0.00,2,,290
2012-10-24,71,62,53,58,55,52,100,89,63,30.19,30.11,30.07,10,4,0,7,1,,0.00,4,Fog,69
2012-10-25,63,60,57,57,56,55,94,87,81,30.25,30.22,30.19,10,9,5,6,1,,0.00,8,,89
2012-10-26,68,62,57,58,57,56,93,78,68,30.22,30.15,30.09,10,10,8,6,2,,0.00,8,,79
2012-10-27,66,60,57,57,53,49,93,74,63,30.08,29.97,29.88,10,10,10,10,3,,0.00,5,,60
2012-10-28,59,55,53,52,48,39,94,75,49,29.87,29.73,29.60,10,9,4,16,9,29,0.13,6,Rain,36
2012-10-29,62,56,51,59,52,46,94,88,69,31.15,29.01,28.21,10,4,1,38,22,54,2.39,8,Rain,11
2012-10-30,,,,,,,,,,,,,,,,,,,,,,
2012-10-31,,,,,,,,,,,,,,,,,,,,,,